FW4092 Weather Reports


Display with metric or nautical units.
time (UTC)temp
F
wind
direction
speed
MPH
gust
MPH
rain 1hr
in
rain 24hr
in
rain mn
in
humidity
%
barometer
mb
20191114233959 40 345 1.0 3.0 0.00 0.01 0.01 92 1016.8
20191114233459 40 338 2.0 3.0 0.00 0.01 0.01 92 1016.8
20191114233000 40 328 2.0 3.0 0.00 0.01 0.01 92 1016.8
20191114232500 40 341 2.0 5.0 0.00 0.01 0.01 91 1016.8
20191114232000 40 350 2.0 5.0 0.00 0.01 0.01 91 1016.6
20191114231459 41 342 1.0 3.0 0.00 0.01 0.01 91 1016.8
20191114230959 41 15 1.0 5.0 0.00 0.01 0.01 92 1016.8
20191114230457 41 355 2.0 5.0 0.00 0.01 0.01 91 1016.8
20191114225957 41 344 2.0 6.0 0.00 0.01 0.01 91 1016.6
20191114225457 41 355 2.0 6.0 0.00 0.01 0.01 91 1016.6
20191114224957 41 344 2.0 4.0 0.00 0.01 0.01 91 1016.5
20191114224457 41 21 2.0 4.0 0.00 0.01 0.01 91 1016.5
20191114223957 41 355 2.0 4.0 0.00 0.01 0.01 91 1016.6
20191114223457 41 11 2.0 4.0 0.00 0.01 0.01 91 1016.6
20191114222957 41 340 2.0 5.0 0.00 0.01 0.01 92 1016.8
20191114222457 41 355 2.0 5.0 0.00 0.01 0.01 92 1016.8
20191114221957 41 37 2.0 5.0 0.00 0.01 0.01 92 1016.8
20191114221455 41 15 2.0 5.0 0.00 0.01 0.01 92 1016.8
20191114220957 41 5 2.0 4.0 0.00 0.01 0.01 92 1016.8
20191114220454 41 337 2.0 4.0 0.00 0.01 0.01 92 1016.8
20191114215955 41 50 1.0 4.0 0.00 0.01 0.01 91 1016.8
20191114215455 41 30 2.0 4.0 0.00 0.01 0.01 92 1017.0
20191114214955 41 0 2.0 4.0 0.00 0.01 0.01 92 1016.9
20191114214454 41 355 2.0 4.0 0.00 0.01 0.01 92 1017.0
20191114213955 41 339 2.0 4.0 0.00 0.01 0.01 92 1017.0
20191114213455 41 340 2.0 5.0 0.00 0.01 0.01 92 1017.1
20191114212953 41 331 2.0 5.0 0.00 0.01 0.01 92 1017.0
20191114212453 41 340 2.0 4.0 0.00 0.01 0.01 93 1017.0
20191114211953 41 297 2.0 6.0 0.00 0.01 0.01 92 1017.0
20191114211453 41 338 2.0 6.0 0.00 0.01 0.01 92 1017.0
20191114210953 41 331 2.0 6.0 0.00 0.01 0.01 93 1017.0
20191114210450 41 336 2.0 6.0 0.00 0.01 0.01 93 1017.0
20191114205951 41 5 2.0 5.0 0.00 0.01 0.01 93 1017.0
20191114205450 41 5 2.0 5.0 0.00 0.01 0.01 93 1017.2
20191114204951 41 355 2.0 5.0 0.00 0.01 0.01 93 1017.3
20191114204450 41 355 2.0 4.0 0.00 0.01 0.01 93 1017.3
20191114203951 41 350 3.0 5.0 0.00 0.01 0.01 93 1017.4
20191114203450 41 338 3.0 5.0 0.00 0.01 0.01 92 1017.2
20191114202951 41 319 2.0 5.0 0.00 0.01 0.01 93 1017.4
20191114202452 41 322 2.0 5.0 0.00 0.01 0.01 93 1017.4
20191114201951 41 323 2.0 5.0 0.00 0.01 0.01 93 1017.4
20191114201451 41 344 1.0 5.0 0.00 0.01 0.01 93 1017.4
20191114200950 41 355 1.0 4.0 0.00 0.01 0.01 94 1017.5
20191114200452 41 355 2.0 4.0 0.00 0.01 0.01 93 1017.6
20191114195950 41 342 1.0 4.0 0.00 0.01 0.01 93 1017.6
20191114195450 41 341 1.0 3.0 0.00 0.01 0.01 95 1017.7
20191114194951 41 325 2.0 4.0 0.00 0.01 0.01 94 1017.8
20191114194450 40 315 2.0 4.0 0.00 0.01 0.01 94 1017.7
20191114193948 41 341 1.0 3.0 0.00 0.01 0.01 95 1017.8
20191114193448 40 333 2.0 3.0 0.00 0.01 0.01 95 1017.9
20191114192947 40 0 1.0 4.0 0.00 0.01 0.01 95 1017.9
20191114192446 40 13 1.0 4.0 0.00 0.01 0.01 95 1017.9
20191114191949 40 34 2.0 4.0 0.00 0.01 0.01 95 1018.1
20191114191444 40 355 2.0 5.0 0.00 0.01 0.01 95 1018.1
20191114190944 41 0 2.0 5.0 0.00 0.01 0.01 95 1018.2
20191114190445 41 339 1.0 4.0 0.00 0.01 0.01 96 1018.3
20191114185943 41 342 1.0 4.0 0.00 0.01 0.01 96 1018.3
20191114185442 40 328 1.0 2.0 0.00 0.01 0.01 97 1018.4
20191114184942 40 325 1.0 2.0 0.00 0.01 0.01 96 1018.4
20191114184440 40 296 1.0 3.0 0.00 0.01 0.01 97 1018.4
20191114183941 40 290 1.0 3.0 0.00 0.01 0.01 97 1018.5
20191114183438 40 290 1.0 3.0 0.00 0.01 0.01 98 1018.4
20191114182939 40 316 1.0 3.0 0.00 0.01 0.01 98 1018.5
20191114182439 40 338 1.0 3.0 0.00 0.01 0.01 98 1018.5
20191114181938 40 281 1.0 3.0 0.00 0.01 0.01 98 1018.5
20191114181438 40 323 1.0 3.0 0.00 0.01 0.01 98 1018.6
20191114180938 40 323 1.0 2.0 0.00 0.01 0.01 98 1018.6
20191114180438 40 323 1.0 2.0 0.00 0.01 0.01 98 1018.7
20191114175939 39 323 1.0 2.0 0.00 0.01 0.01 98 1018.6
20191114175443 39 323 0.0 2.0 0.00 0.01 0.01 98 1018.6
20191114174938 39 323 0.0 2.0 0.00 0.01 0.01 98 1018.7
20191114174437 39 323 0.0 1.0 0.00 0.01 0.01 98 1018.6
20191114173938 39 323 1.0 2.0 0.00 0.01 0.01 98 1018.7
20191114173438 39 323 1.0 2.0 0.00 0.01 0.01 98 1018.6
20191114172938 39 324 1.0 2.0 0.01 0.01 0.01 98 1018.7
20191114172436 39 324 1.0 2.0 0.01 0.01 0.01 98 1018.6
20191114171937 38 321 1.0 2.0 0.01 0.01 0.01 98 1018.6
20191114171436 39 323 1.0 2.0 0.01 0.01 0.01 98 1018.7
20191114170936 38 304 1.0 2.0 0.01 0.01 0.01 98 1018.7
20191114170436 38 298 1.0 3.0 0.01 0.01 0.01 98 1018.7
20191114165936 38 298 0.0 3.0 0.01 0.01 0.01 98 1018.7
20191114165436 38 298 0.0 2.0 0.01 0.01 0.01 98 1018.7
20191114164935 38 298 1.0 2.0 0.01 0.01 0.01 98 1018.7
20191114164436 38 298 1.0 2.0 0.01 0.01 0.01 98 1018.7
20191114163936 38 298 1.0 3.0 0.01 0.01 0.01 98 1018.7
20191114163434 38 298 1.0 3.0 0.01 0.01 0.01 98 1018.6
20191114162934 38 297 1.0 2.0 0.00 0.00 0.00 98 1018.6
20191114162432 37 19 1.0 2.0 0.00 0.00 0.00 98 1018.6
20191114161932 37 19 1.0 2.0 0.00 0.00 0.00 98 1018.6
20191114161429 37 27 1.0 2.0 0.00 0.00 0.00 98 1018.5
20191114160929 37 27 1.0 2.0 0.00 0.00 0.00 98 1018.6
20191114160430 37 27 0.0 2.0 0.00 0.00 0.00 98 1018.6
20191114155930 37 27 0.0 2.0 0.00 0.00 0.00 98 1018.6
20191114155430 37 27 0.0 1.0 0.00 0.00 0.00 98 1018.6
20191114154929 37 27 0.0 1.0 0.00 0.00 0.00 98 1018.6
20191114154427 37 27 0.0 1.0 0.00 0.00 0.00 98 1018.6
20191114153928 37 27 0.0 2.0 0.00 0.00 0.00 98 1018.7
20191114153428 37 27 0.0 2.0 0.00 0.00 0.00 98 1018.6
20191114152930 37 27 0.0 2.0 0.00 0.00 0.00 98 1018.6
20191114152431 37 27 1.0 2.0 0.00 0.00 0.00 98 1018.5
20191114151928 37 27 1.0 2.0 0.00 0.00 0.00 98 1018.6
20191114151428 37 27 1.0 2.0 0.00 0.00 0.00 98 1018.6
20191114150928 37 27 1.0 2.0 0.00 0.00 0.00 98 1018.5
20191114150428 37 27 0.0 1.0 0.00 0.00 0.00 98 1018.4
20191114145927 37 27 0.0 1.0 0.00 0.00 0.00 98 1018.4
20191114145425 37 27 0.0 1.0 0.00 0.00 0.00 98 1018.4
20191114144926 37 27 0.0 1.0 0.00 0.00 0.00 98 1018.4
20191114144426 37 27 0.0 2.0 0.00 0.00 0.00 98 1018.4
20191114143925 37 27 1.0 2.0 0.00 0.00 0.00 98 1018.3
20191114143426 37 27 1.0 2.0 0.00 0.00 0.00 98 1018.4
20191114142925 37 27 0.0 2.0 0.00 0.00 0.00 98 1018.4
20191114142425 37 27 0.0 1.0 0.00 0.00 0.00 98 1018.4
20191114141926 37 27 0.0 1.0 0.00 0.00 0.00 98 1018.4
20191114141424 37 27 0.0 1.0 0.00 0.00 0.00 98 1018.4
20191114140923 37 27 0.0 1.0 0.00 0.00 0.00 98 1018.4
20191114140423 37 27 0.0 1.0 0.00 0.00 0.00 98 1018.4
20191114135924 37 27 0.0 1.0 0.00 0.00 0.00 98 1018.5
20191114135424 37 27 0.0 1.0 0.00 0.00 0.00 98 1018.5
20191114134922 37 27 0.0 1.0 0.00 0.00 0.00 98 1018.4
20191114134421 37 27 0.0 1.0 0.00 0.00 0.00 98 1018.4
20191114133921 37 27 0.0 1.0 0.00 0.00 0.00 98 1018.5
20191114133422 37 27 0.0 0.0 0.00 0.00 0.00 98 1018.4
20191114132922 37 27 0.0 0.0 0.00 0.00 0.00 98 1018.5
20191114132420 37 27 0.0 0.0 0.00 0.00 0.00 97 1018.5
20191114131919 37 27 0.0 1.0 0.00 0.00 0.00 97 1018.5
20191114131419 37 27 0.0 1.0 0.00 0.00 0.00 97 1018.6
20191114130919 37 27 0.0 1.0 0.00 0.00 0.00 97 1018.6
20191114130419 37 27 0.0 1.0 0.00 0.00 0.00 97 1018.7
20191114125919 37 27 0.0 0.0 0.00 0.00 0.00 97 1018.6
20191114125419 37 27 0.0 1.0 0.00 0.00 0.00 97 1018.6
20191114124917 37 27 0.0 1.0 0.00 0.00 0.00 97 1018.7
20191114124418 37 27 0.0 1.0 0.00 0.00 0.00 97 1018.6
20191114123917 37 27 0.0 2.0 0.00 0.00 0.00 97 1018.6
20191114123417 37 27 0.0 2.0 0.00 0.00 0.00 97 1018.6
20191114122917 37 28 0.0 2.0 0.00 0.00 0.00 98 1018.7
20191114122417 37 28 1.0 2.0 0.00 0.00 0.00 97 1018.6
20191114121917 37 340 1.0 3.0 0.00 0.00 0.00 97 1018.7
20191114121420 37 340 1.0 3.0 0.00 0.00 0.00 97 1018.7
20191114120918 37 340 1.0 3.0 0.00 0.00 0.00 97 1018.8
20191114120417 37 340 1.0 3.0 0.00 0.00 0.00 98 1018.7
20191114115918 37 327 0.0 2.0 0.00 0.00 0.00 97 1018.7
20191114115417 37 324 0.0 2.0 0.00 0.00 0.00 97 1018.8
20191114114917 37 324 0.0 1.0 0.00 0.00 0.00 97 1018.9
20191114114415 37 324 0.0 2.0 0.00 0.00 0.00 97 1019.0
20191114113915 37 324 1.0 2.0 0.00 0.00 0.00 97 1019.0
20191114113415 37 324 1.0 2.0 0.00 0.00 0.00 97 1019.0
20191114112916 37 324 1.0 2.0 0.00 0.00 0.00 97 1019.0
20191114112415 37 324 0.0 2.0 0.00 0.00 0.00 97 1019.1
20191114111915 37 323 1.0 2.0 0.00 0.00 0.00 97 1019.1
20191114111415 37 323 1.0 3.0 0.00 0.00 0.00 97 1019.0
20191114110915 37 317 1.0 4.0 0.00 0.00 0.00 97 1019.0
20191114110415 37 321 1.0 4.0 0.00 0.00 0.00 97 1019.1
20191114105915 37 346 1.0 3.0 0.00 0.00 0.00 97 1019.1
20191114105414 37 338 1.0 3.0 0.00 0.00 0.00 97 1019.3
20191114104914 37 327 1.0 3.0 0.00 0.00 0.00 97 1019.3
20191114104413 37 325 1.0 3.0 0.00 0.00 0.00 97 1019.1
20191114103913 37 338 1.0 3.0 0.00 0.00 0.00 97 1019.1
20191114103413 37 333 1.0 4.0 0.00 0.00 0.00 97 1019.1
20191114102913 37 339 1.0 4.0 0.00 0.00 0.00 97 1019.3
20191114102414 37 327 1.0 3.0 0.00 0.00 0.00 97 1019.3
20191114101913 37 334 1.0 3.0 0.00 0.00 0.00 97 1019.3
20191114101412 37 333 1.0 3.0 0.00 0.00 0.00 97 1019.3
20191114100916 37 347 1.0 3.0 0.00 0.00 0.00 97 1019.4
20191114100411 37 335 1.0 3.0 0.00 0.00 0.00 97 1019.4
20191114095914 37 318 1.0 3.0 0.00 0.00 0.00 97 1019.4
20191114095415 37 321 1.0 2.0 0.00 0.00 0.00 97 1019.5
20191114094910 37 0 1.0 3.0 0.00 0.00 0.00 97 1019.4
20191114094411 37 0 1.0 3.0 0.00 0.00 0.00 97 1019.3
20191114093910 37 328 1.0 3.0 0.00 0.00 0.00 97 1019.3
20191114093411 37 355 1.0 3.0 0.00 0.00 0.00 97 1019.0
20191114092909 37 355 1.0 3.0 0.00 0.00 0.00 97 1019.1
20191114092408 37 20 1.0 4.0 0.00 0.00 0.00 97 1019.0
20191114091909 37 331 1.0 4.0 0.00 0.00 0.00 97 1019.1
20191114091409 37 342 1.0 3.0 0.00 0.00 0.00 97 1019.0
20191114090908 37 339 1.0 3.0 0.00 0.00 0.00 97 1019.1
20191114090409 37 350 1.0 4.0 0.00 0.00 0.00 97 1019.1
20191114085909 37 331 2.0 4.0 0.00 0.00 0.00 97 1019.1
20191114085409 37 355 2.0 5.0 0.00 0.00 0.00 97 1019.3
20191114084909 37 340 2.0 5.0 0.00 0.00 0.00 97 1019.1
20191114084412 37 331 2.0 4.0 0.00 0.00 0.00 97 1019.3
20191114083909 38 329 2.0 4.0 0.00 0.00 0.00 97 1019.3
20191114083409 38 323 2.0 4.0 0.00 0.00 0.00 97 1019.3
20191114082909 38 324 1.0 3.0 0.00 0.00 0.00 97 1019.4
20191114082408 38 346 2.0 5.0 0.00 0.00 0.00 97 1019.3
20191114081908 38 323 2.0 5.0 0.00 0.00 0.00 97 1019.3
20191114081408 38 342 2.0 5.0 0.00 0.00 0.00 97 1019.1
20191114080909 38 329 2.0 4.0 0.00 0.00 0.00 97 1019.3
20191114080409 38 319 2.0 4.0 0.00 0.00 0.00 97 1019.1
20191114075909 38 333 1.0 4.0 0.00 0.00 0.00 97 1019.1
20191114075408 38 333 1.0 3.0 0.00 0.00 0.00 97 1019.3
20191114074909 38 341 1.0 3.0 0.00 0.00 0.00 97 1019.0
20191114074409 38 341 1.0 3.0 0.00 0.00 0.00 97 1019.0
20191114073908 38 355 1.0 3.0 0.00 0.00 0.00 97 1018.9
20191114073411 38 355 2.0 4.0 0.00 0.00 0.00 97 1019.0
20191114072909 38 337 2.0 4.0 0.00 0.00 0.00 96 1019.0
20191114072406 38 327 1.0 4.0 0.00 0.00 0.00 96 1019.1
20191114071906 38 346 1.0 4.0 0.00 0.00 0.00 96 1019.1
20191114071407 38 18 1.0 4.0 0.00 0.00 0.00 96 1019.3
20191114070905 38 346 2.0 4.0 0.00 0.00 0.00 96 1019.3
20191114070402 38 349 2.0 4.0 0.00 0.00 0.00 96 1019.3
20191114065902 38 344 2.0 5.0 0.00 0.00 0.00 96 1019.3
20191114065403 38 338 2.0 5.0 0.00 0.00 0.00 96 1019.3
20191114064903 38 346 1.0 4.0 0.00 0.00 0.00 96 1019.1
20191114064402 38 342 1.0 4.0 0.00 0.00 0.00 96 1019.0
20191114063901 38 34 1.0 3.0 0.00 0.00 0.00 96 1019.0
20191114063401 38 34 1.0 3.0 0.00 0.00 0.00 96 1019.0
20191114062859 38 32 1.0 4.0 0.00 0.00 0.00 96 1019.0
20191114062400 38 5 2.0 4.0 0.00 0.00 0.00 96 1019.0
20191114061900 38 351 1.0 4.0 0.00 0.00 0.00 96 1018.8
20191114061400 39 5 1.0 5.0 0.00 0.00 0.00 96 1018.8
20191114060903 39 350 1.0 5.0 0.00 0.00 0.00 96 1018.8
20191114060359 39 34 1.0 4.0 0.00 0.00 0.00 96 1018.8
20191114055858 39 22 1.0 4.0 0.00 0.00 0.00 96 1018.9
20191114055358 39 336 2.0 5.0 0.00 0.00 0.00 96 1018.8
20191114054858 39 344 2.0 5.0 0.00 0.00 0.00 95 1018.8
20191114054357 39 340 2.0 5.0 0.00 0.00 0.00 95 1018.8
20191114053856 39 331 2.0 5.0 0.00 0.00 0.00 95 1018.7
20191114053356 39 5 2.0 5.0 0.00 0.00 0.00 95 1018.8
20191114052856 39 331 2.0 5.0 0.00 0.00 0.00 95 1018.7
20191114052356 39 334 2.0 5.0 0.00 0.00 0.00 95 1018.7
20191114051857 39 322 2.0 5.0 0.00 0.00 0.00 95 1018.8
20191114051356 39 355 2.0 6.0 0.00 0.00 0.00 95 1018.7
20191114050856 39 324 2.0 6.0 0.00 0.00 0.00 95 1018.7
20191114050355 39 346 2.0 6.0 0.00 0.00 0.00 95 1018.6
20191114045856 39 350 2.0 5.0 0.00 0.00 0.00 95 1018.5
20191114045356 39 348 2.0 4.0 0.00 0.00 0.00 95 1018.4
20191114044854 40 342 2.0 6.0 0.00 0.00 0.00 95 1018.4
20191114044354 40 39 2.0 8.0 0.00 0.00 0.00 95 1018.3
20191114043854 40 13 2.0 9.0 0.00 0.00 0.00 95 1018.3
20191114043354 40 0 3.0 9.0 0.00 0.00 0.00 95 1018.3
20191114042854 40 341 3.0 8.0 0.00 0.00 0.00 94 1018.2
20191114042354 40 337 3.0 8.0 0.00 0.00 0.00 94 1018.2
20191114041854 40 327 3.0 8.0 0.00 0.00 0.00 94 1018.1
20191114041354 40 330 3.0 8.0 0.00 0.00 0.00 94 1018.2
20191114040856 40 355 3.0 8.0 0.00 0.00 0.00 94 1017.9
20191114040354 40 9 3.0 9.0 0.00 0.00 0.00 94 1017.9
20191114035853 40 335 3.0 10.0 0.00 0.00 0.00 94 1017.8
20191114035354 40 327 4.0 10.0 0.00 0.00 0.00 94 1017.8
20191114034854 40 341 4.0 12.0 0.00 0.00 0.00 94 1017.7
20191114034354 40 321 5.0 12.0 0.00 0.00 0.00 94 1017.8
20191114033854 41 350 4.0 12.0 0.00 0.00 0.00 94 1017.7
20191114033353 41 299 4.0 10.0 0.00 0.00 0.00 94 1017.6
20191114032853 41 317 4.0 10.0 0.00 0.00 0.00 94 1017.6
20191114032351 41 348 4.0 10.0 0.00 0.00 0.00 94 1017.7
20191114031853 41 335 4.0 10.0 0.00 0.00 0.00 94 1017.6
20191114031352 41 308 4.0 10.0 0.00 0.00 0.00 93 1017.6
20191114030852 41 337 4.0 10.0 0.00 0.00 0.00 93 1017.6
20191114030352 41 307 4.0 10.0 0.00 0.00 0.00 93 1017.7
20191114025852 41 331 4.0 9.0 0.00 0.00 0.00 93 1017.7
20191114025354 41 322 4.0 11.0 0.00 0.00 0.00 93 1017.7
20191114024852 41 304 5.0 11.0 0.00 0.00 0.00 93 1017.6
20191114024352 41 355 5.0 11.0 0.00 0.00 0.00 93 1017.5
20191114023849 41 313 6.0 11.0 0.00 0.00 0.00 93 1017.6
20191114023350 42 340 6.0 11.0 0.00 0.00 0.00 92 1017.5
20191114022850 42 0 5.0 11.0 0.00 0.00 0.00 92 1017.5
20191114022349 42 329 5.0 10.0 0.00 0.00 0.00 91 1017.5
20191114021850 43 343 4.0 10.0 0.00 0.00 0.00 90 1017.5
20191114021350 43 338 4.0 10.0 0.00 0.00 0.00 89 1017.4
20191114020850 43 339 4.0 9.0 0.00 0.00 0.00 89 1017.3
20191114020350 43 336 4.0 9.0 0.00 0.00 0.00 88 1017.3
20191114015850 44 347 4.0 8.0 0.00 0.00 0.00 88 1017.2
20191114015349 44 325 3.0 8.0 0.00 0.00 0.00 87 1017.1
20191114014847 44 344 3.0 9.0 0.00 0.00 0.00 87 1017.1
20191114014348 45 345 4.0 10.0 0.00 0.00 0.00 86 1017.2
20191114013848 45 15 4.0 10.0 0.00 0.00 0.00 86 1017.2
20191114013348 46 317 4.0 10.0 0.00 0.00 0.00 85 1017.1
20191114012848 46 340 4.0 10.0 0.00 0.00 0.00 84 1017.0
20191114012348 46 311 4.0 10.0 0.00 0.00 0.00 84 1017.0
20191114011847 47 0 4.0 9.0 0.00 0.00 0.00 83 1016.9
20191114011347 47 342 4.0 8.0 0.00 0.00 0.00 83 1016.9
20191114010847 47 329 4.0 8.0 0.00 0.00 0.00 83 1016.8
20191114010348 48 355 4.0 10.0 0.00 0.00 0.00 82 1016.6
20191114005848 48 338 4.0 12.0 0.00 0.00 0.00 82 1016.6
20191114005346 48 351 3.0 12.0 0.00 0.00 0.00 81 1016.6
20191114004845 49 325 3.0 8.0 0.00 0.00 0.00 81 1016.6
20191114004346 49 301 4.0 10.0 0.00 0.00 0.00 80 1016.5
20191114003845 49 333 3.0 10.0 0.00 0.00 0.00 79 1016.6
20191114003345 50 336 3.0 8.0 0.00 0.00 0.00 78 1016.5
20191114002845 51 333 3.0 9.0 0.00 0.00 0.00 76 1016.5
20191114002344 51 343 4.0 9.0 0.00 0.00 0.00 75 1016.4
20191114001842 51 346 4.0 9.0 0.00 0.00 0.00 74 1016.4
20191114001341 52 348 4.0 9.0 0.00 0.00 0.00 73 1016.4
20191114000842 53 324 4.0 9.0 0.00 0.00 0.00 72 1016.4
20191114000339 53 289 3.0 8.0 0.00 0.00 0.00 71 1016.4
20191113235839 54 355 3.0 8.0 0.00 0.00 0.00 70 1016.4
20191113235340 54 350 3.0 8.0 0.00 0.00 0.00 69 1016.4
20191113234839 55 331 3.0 8.0 0.00 0.00 0.00 68 1016.4